[[{"header":{"parameterUnit":"m.s-1","parameterCategory":1,"la1":30.2991,"la2":30.254,"lo1":-89.0895,"lo2":-89.0444,"dy":0.0017,"dx":0.0017,"nx":28,"ny":28,"refTime":"2026-01-10T03:00:00:Z","depth":0,"parameterNumber":2,"parameterNumberName":"U-component_of_WINDS"},"data":[0,0,0,0,0,0,0,0,0,0,0,0,0,0,0,0,0,0,0,0,0,0,0,0,0,0,0,0,0,0,0,0,0,0,0,0,0,0,0,0,0,0,0,0,0,0,0,0,0,0,0,0,0,0,0,0,0,0,-0.1801,-0.1801,0,-0.179,-0.179,-0.179,-0.1772,-0.1771,-0.1771,-0.1771,-0.1761,-0.1761,-0.1761,0,0,0,0,0,0,0,0,0,0,0,0,0,-0.1805,-0.1805,-0.1801,-0.1801,-0.18,-0.179,-0.179,-0.179,-0.1772,-0.1771,-0.1771,-0.177,-0.1761,-0.1761,-0.1761,0,0,0,0,0,0,0,0,0,0,0,0,0,-0.18,-0.1805,-0.1801,-0.179,-0.1789,-0.179,-0.179,-0.179,-0.1772,-0.1771,-0.1771,-0.177,-0.1761,-0.1761,-0.1761,-0.1773,0,0,-0.1762,-0.1762,0,0,0,0,0,0,0,0,-0.18,-0.1799,-0.1792,-0.1791,-0.179,-0.1782,-0.1788,-0.1784,-0.1772,-0.1778,-0.1771,-0.177,-0.1769,-0.1768,-0.1767,-0.1772,-0.1772,-0.1762,-0.1762,-0.1762,-0.1762,0,0,0,0,0,0,0,-0.18,-0.18,-0.1797,-0.1792,-0.179,-0.1786,-0.1784,-0.1787,-0.1777,-0.1778,-0.1776,-0.1775,-0.1768,-0.1767,-0.1767,-0.1772,-0.1762,-0.1762,-0.1762,-0.1762,-0.1785,-0.1785,0,0,0,0,0,0,-0.1802,-0.18,-0.1797,-0.1796,-0.1793,-0.1786,-0.1785,-0.1785,-0.1776,-0.1775,-0.1776,-0.1774,-0.1767,-0.1767,-0.1767,-0.1779,-0.1762,-0.1762,-0.1762,-0.1784,-0.1785,-0.1786,0,0,0,0,0,0,-0.1802,-0.1802,-0.1797,-0.1798,-0.1797,-0.1787,-0.1787,-0.1785,-0.1784,-0.1775,-0.1773,-0.1777,-0.1767,-0.1766,-0.1771,-0.1778,-0.1762,-0.1762,-0.1784,-0.1784,-0.1785,-0.1804,0,0,0,0,0,0,-0.1802,-0.1802,-0.1806,-0.1798,-0.1797,-0.1802,-0.1787,-0.1785,-0.1784,-0.1783,-0.1776,-0.1774,-0.1766,-0.1771,-0.1771,-0.1778,-0.1762,-0.1783,-0.1784,-0.1785,-0.1803,-0.1806,-0.1808,0,0,0,0,0,-0.1803,-0.1813,-0.1807,-0.1807,-0.1802,-0.1803,-0.1802,-0.1793,-0.1785,-0.1789,-0.1783,-0.1774,-0.1777,-0.1772,-0.1772,-0.1779,-0.1783,-0.1784,-0.1785,-0.1802,-0.1805,-0.1808,0,0,0,0,0,0,-0.1823,-0.1811,-0.1805,-0.1812,-0.1809,-0.18,-0.1805,-0.1796,-0.1795,-0.1794,-0.1782,-0.1781,-0.1787,-0.1783,-0.1777,-0.1789,-0.1778,-0.178,-0.1791,-0.1794,-0.1797,-0.1798,-0.1762,0,0,0,0,0,-0.1828,-0.1829,-0.1819,-0.1827,-0.1825,-0.1815,-0.1815,-0.1808,-0.1804,-0.1802,-0.1797,-0.1793,-0.1793,-0.1793,-0.1793,-0.1802,-0.18,-0.1807,-0.1809,-0.1811,-0.1813,-0.1817,-0.182,-0.1789,-0.1789,-0.1789,0,0,-0.1839,-0.1833,-0.1835,-0.1831,-0.1827,-0.1829,-0.1814,-0.1817,-0.1818,-0.1803,-0.1807,-0.1802,-0.1797,-0.1804,-0.1807,-0.1801,-0.182,-0.1813,-0.1815,-0.1815,-0.1818,-0.1821,-0.1824,-0.179,-0.179,-0.179,0,0,-0.186,-0.1856,-0.1861,-0.1857,-0.1852,-0.1845,-0.1846,-0.1838,-0.1834,-0.1838,-0.1826,-0.1827,-0.1828,-0.1825,-0.1823,-0.1841,-0.1833,-0.1841,-0.1855,-0.1859,-0.1861,-0.1863,-0.1869,-0.1872,-0.1843,-0.1843,-0.1843,0,-0.1875,-0.1877,-0.1865,-0.1868,-0.1867,-0.1852,-0.1858,-0.1855,-0.1849,-0.1848,-0.1842,-0.1842,-0.1838,-0.1843,-0.1847,-0.1847,-0.1848,-0.1843,-0.1861,-0.1863,-0.1865,-0.1871,-0.1874,-0.1844,-0.1844,-0.1844,-0.1844,0,-0.1895,-0.1896,-0.1901,-0.1896,-0.1894,-0.1899,-0.1888,-0.1888,-0.1881,-0.1874,-0.1878,-0.1872,-0.187,-0.1871,-0.1864,-0.1875,-0.1872,-0.1864,-0.1853,-0.1869,-0.1875,-0.1877,-0.1845,-0.1845,-0.1845,-0.1844,0,0,-0.193,-0.1916,-0.1919,-0.1916,-0.1907,-0.1908,-0.1911,-0.1908,-0.1909,-0.1905,-0.1907,-0.1907,-0.19,-0.1898,-0.189,-0.1894,-0.1908,-0.1885,-0.1885,-0.189,-0.192,-0.1926,-0.1929,-0.1902,-0.1903,-0.1903,-0.192,0,-0.1949,-0.1954,-0.1943,-0.195,-0.1951,-0.1937,-0.1939,-0.1935,-0.1928,-0.1928,-0.1921,-0.1922,-0.1911,-0.191,-0.1913,-0.1906,-0.1914,-0.1904,-0.1904,-0.1905,-0.1907,-0.1932,-0.1939,-0.1955,-0.1922,-0.1922,-0.1923,0,-0.1973,-0.1969,-0.1977,-0.1967,-0.1967,-0.197,-0.1966,-0.1966,-0.196,-0.1955,-0.1952,-0.1943,-0.1945,-0.1934,-0.1937,-0.1931,-0.193,-0.1926,-0.1927,-0.1927,-0.1915,-0.1933,-0.196,-0.1963,-0.1926,-0.1926,-0.1925,0,-0.1997,-0.1995,-0.1998,-0.1996,-0.1985,-0.1987,-0.1983,-0.1976,-0.1975,-0.1971,-0.197,-0.1967,-0.1966,-0.1964,-0.1954,-0.1947,-0.1958,-0.1946,-0.1954,-0.1954,-0.1957,-0.1957,-0.1986,-0.1956,-0.1956,-0.1956,-0.1956,0,-0.202,-0.2025,-0.2009,-0.2012,-0.2016,-0.2004,-0.2009,-0.2003,-0.1997,-0.1998,-0.1985,-0.1986,-0.1973,-0.1973,-0.1965,-0.1968,-0.1968,-0.1964,-0.1962,-0.1965,-0.1966,-0.1965,-0.1964,-0.1957,-0.1957,-0.1957,-0.1957,0,-0.2049,-0.2038,-0.2041,-0.203,-0.2027,-0.2032,-0.2022,-0.2024,-0.2016,-0.2017,-0.2017,-0.2005,-0.2004,-0.1993,-0.199,-0.1985,-0.1991,-0.1987,-0.1993,-0.1992,-0.2,-0.2,-0.2029,-0.2032,-0.2001,-0.2001,-0.2002,0,-0.2065,-0.2068,-0.2057,-0.2056,-0.2052,-0.2052,-0.205,-0.2037,-0.2036,-0.2029,-0.2031,-0.2029,-0.2026,-0.2025,-0.2016,-0.2013,-0.2009,-0.2019,-0.2008,-0.2011,-0.2009,-0.2009,-0.2009,-0.2022,-0.2022,-0.2022,-0.2023,0,-0.2094,-0.2088,-0.2086,-0.2082,-0.208,-0.2076,-0.2071,-0.2072,-0.2057,-0.2057,-0.2055,-0.2053,-0.2049,-0.2046,-0.2042,-0.2037,-0.2028,-0.2026,-0.2028,-0.2031,-0.2035,-0.2033,-0.2,-0.2026,-0.2025,-0.2025,-0.2025,-0.2025,-0.2116,-0.2118,-0.2111,-0.2108,-0.2103,-0.2099,-0.21,-0.2092,-0.209,-0.2085,-0.2078,-0.2077,-0.207,-0.2063,-0.2059,-0.2058,-0.2052,-0.2055,-0.2055,-0.2056,-0.2058,-0.2035,-0.2057,-0.2057,-0.2057,-0.2056,-0.2056,0,-0.2145,-0.2139,-0.2137,-0.213,-0.2128,-0.2119,-0.2113,-0.2112,-0.2111,-0.2105,-0.2102,-0.21,-0.2097,-0.2088,-0.2084,-0.2085,-0.2081,-0.2085,-0.2085,-0.2084,-0.2063,-0.2062,-0.2088,-0.2088,-0.2088,-0.2088,-0.2088,-0.2088,-0.2159,-0.2162,-0.2155,-0.2155,-0.2149,-0.2147,-0.2145,-0.2141,-0.2136,-0.2133,-0.2131,-0.2124,-0.2117,-0.2112,-0.2109,-0.2106,-0.2106,-0.2111,-0.2107,-0.2088,-0.2085,-0.2082,-0.2081,-0.2111,-0.2111,-0.2128,-0.2128,-0.2128]},{"header":{"parameterUnit":"m.s-1","parameterCategory":1,"la1":30.2991,"la2":30.254,"lo1":-89.0895,"lo2":-89.0444,"dy":0.0017,"dx":0.0017,"nx":28,"ny":28,"refTime":"2026-01-10T03:00:00:Z","depth":0,"parameterNumber":3,"parameterNumberName":"V-component_of_WINDS"},"data":[0,0,0,0,0,0,0,0,0,0,0,0,0,0,0,0,0,0,0,0,0,0,0,0,0,0,0,0,0,0,0,0,0,0,0,0,0,0,0,0,0,0,0,0,0,0,0,0,0,0,0,0,0,0,0,0,0,0,-6.3687,-6.3688,0,-6.3767,-6.3767,-6.3768,-6.3749,-6.3747,-6.3746,-6.3744,-6.382,-6.3824,-6.3827,0,0,0,0,0,0,0,0,0,0,0,0,0,-6.3516,-6.3519,-6.3687,-6.3688,-6.3689,-6.3766,-6.3767,-6.3768,-6.3749,-6.3747,-6.3746,-6.3744,-6.3819,-6.3823,-6.3827,0,0,0,0,0,0,0,0,0,0,0,0,0,-6.3592,-6.352,-6.3687,-6.3689,-6.369,-6.3766,-6.3767,-6.3769,-6.375,-6.3747,-6.3745,-6.3743,-6.3818,-6.3823,-6.3828,-6.3905,0,0,-6.3844,-6.3846,0,0,0,0,0,0,0,0,-6.3588,-6.3598,-6.3688,-6.3689,-6.369,-6.3746,-6.3735,-6.3814,-6.375,-6.3727,-6.3744,-6.3742,-6.3797,-6.3804,-6.3823,-6.3909,-6.3912,-6.3844,-6.3847,-6.3849,-6.3851,0,0,0,0,0,0,0,-6.3583,-6.3595,-6.3718,-6.3689,-6.3691,-6.3685,-6.3693,-6.375,-6.3773,-6.3729,-6.3728,-6.3737,-6.3797,-6.3818,-6.3825,-6.3913,-6.3844,-6.3848,-6.3852,-6.3854,-6.4068,-6.407,0,0,0,0,0,0,-6.3577,-6.3591,-6.3716,-6.3721,-6.3633,-6.369,-6.3699,-6.373,-6.3773,-6.3777,-6.3739,-6.3736,-6.3811,-6.3819,-6.3827,-6.3923,-6.3849,-6.3854,-6.3857,-6.4065,-6.4069,-6.4071,0,0,0,0,0,0,-6.3573,-6.3588,-6.3713,-6.3656,-6.3671,-6.3695,-6.373,-6.3733,-6.3754,-6.3781,-6.3785,-6.3757,-6.3809,-6.382,-6.3887,-6.3925,-6.3856,-6.3861,-6.4062,-6.4066,-6.407,-6.4112,0,0,0,0,0,0,-6.3568,-6.3587,-6.3617,-6.3656,-6.3674,-6.3772,-6.3732,-6.3736,-6.3764,-6.3761,-6.3798,-6.3802,-6.3808,-6.3879,-6.3892,-6.3931,-6.3865,-6.4059,-6.4064,-6.4069,-6.4107,-6.4117,-6.4125,0,0,0,0,0,-6.3562,-6.3624,-6.3619,-6.3634,-6.3713,-6.3774,-6.3784,-6.3791,-6.3767,-6.3797,-6.3815,-6.3801,-6.3919,-6.3886,-6.39,-6.3941,-6.4057,-6.4063,-6.4068,-6.4103,-6.4115,-6.4125,0,0,0,0,0,0,-6.3586,-6.3629,-6.3624,-6.3701,-6.3734,-6.3771,-6.3809,-6.3803,-6.3842,-6.3837,-6.3843,-6.3851,-6.392,-6.3937,-6.39,-6.4019,-6.3984,-6.3993,-6.4006,-6.4017,-6.4026,-6.402,-6.3869,0,0,0,0,0,-6.3601,-6.3649,-6.3683,-6.3747,-6.3765,-6.3784,-6.3811,-6.3814,-6.3848,-6.3862,-6.3884,-6.3917,-6.3961,-6.399,-6.4032,-6.411,-6.4118,-6.4145,-6.4154,-6.4161,-6.4169,-6.4213,-6.4226,-6.4091,-6.4091,-6.4091,0,0,-6.3631,-6.366,-6.3689,-6.3753,-6.3779,-6.3828,-6.3796,-6.3848,-6.3884,-6.3869,-6.3934,-6.3952,-6.3989,-6.4062,-6.4095,-6.4078,-6.4208,-6.4168,-6.4174,-6.4178,-6.422,-6.4233,-6.4244,-6.4095,-6.4094,-6.4093,0,0,-6.371,-6.3737,-6.3795,-6.3823,-6.3865,-6.3878,-6.3892,-6.393,-6.3942,-6.4008,-6.3998,-6.404,-6.4116,-6.4144,-6.4167,-6.4261,-6.425,-6.4274,-6.432,-6.4363,-6.4374,-6.4383,-6.4418,-6.443,-6.4281,-6.4282,-6.4282,0,-6.3742,-6.3816,-6.3825,-6.3879,-6.3908,-6.3899,-6.3958,-6.3983,-6.4036,-6.4055,-6.4036,-6.4133,-6.4157,-6.4237,-6.4261,-6.4279,-6.4296,-6.4269,-6.4372,-6.4382,-6.439,-6.4423,-6.4436,-6.4284,-6.4284,-6.4284,-6.4283,0,-6.3853,-6.3905,-6.3947,-6.4001,-6.4034,-6.409,-6.4106,-6.4139,-6.4139,-6.4154,-6.4222,-6.4251,-6.43,-6.4319,-6.4318,-6.44,-6.4389,-6.4371,-6.4335,-6.4406,-6.4437,-6.445,-6.4288,-6.4287,-6.4286,-6.4286,0,0,-6.3949,-6.4009,-6.4024,-6.405,-6.4096,-6.4136,-6.4192,-6.4242,-6.427,-6.4307,-6.4354,-6.442,-6.4405,-6.4432,-6.4434,-6.4472,-6.4546,-6.445,-6.4451,-6.4468,-6.4639,-6.4653,-6.4668,-6.454,-6.4542,-6.4544,-6.4637,0,-6.4033,-6.4134,-6.4145,-6.4235,-6.4283,-6.4277,-6.4326,-6.4359,-6.4375,-6.4417,-6.4434,-6.4482,-6.4457,-6.4474,-6.4511,-6.4529,-6.4581,-6.4523,-6.4583,-6.4585,-6.4575,-6.4684,-6.4698,-6.4784,-6.4649,-6.4651,-6.4652,0,-6.4145,-6.4189,-6.4284,-6.4327,-6.4347,-6.4391,-6.4439,-6.448,-6.4518,-6.4527,-6.4559,-6.4558,-6.4615,-6.4578,-6.4657,-6.4617,-6.4642,-6.4656,-6.4659,-6.4665,-6.4623,-6.4694,-6.4812,-6.4825,-6.4671,-6.467,-6.4668,0,-6.4207,-6.4289,-6.4358,-6.4379,-6.443,-6.4461,-6.4483,-6.4519,-6.455,-6.4591,-6.4611,-6.4657,-6.4683,-6.4719,-6.473,-6.4702,-6.4809,-6.4772,-6.4818,-6.4818,-6.4841,-6.4839,-6.4966,-6.4856,-6.4856,-6.4856,-6.4855,0,-6.4301,-6.436,-6.4387,-6.4429,-6.4495,-6.4506,-6.4571,-6.4591,-6.4624,-6.4669,-6.4665,-6.4707,-6.4719,-6.4764,-6.4772,-6.4837,-6.4848,-6.4857,-6.4859,-6.4858,-6.4857,-6.4875,-6.4869,-6.4859,-6.4858,-6.4858,-6.4857,0,-6.4381,-6.4401,-6.4476,-6.4519,-6.4531,-6.4578,-6.4614,-6.4654,-6.4671,-6.4728,-6.4742,-6.4767,-6.4819,-6.4834,-6.4896,-6.4902,-6.4979,-6.4974,-6.4967,-6.4967,-6.5013,-6.5009,-6.5155,-6.5175,-6.5052,-6.5053,-6.5054,0,-6.444,-6.4486,-6.4535,-6.4567,-6.4591,-6.4641,-6.4673,-6.4686,-6.4719,-6.4768,-6.4802,-6.4855,-6.4897,-6.4981,-6.5004,-6.5052,-6.5049,-6.5097,-6.5056,-6.5054,-6.5051,-6.5049,-6.5054,-6.5105,-6.5106,-6.5107,-6.5108,0,-6.4543,-6.4552,-6.4599,-6.4651,-6.469,-6.4731,-6.4769,-6.4795,-6.4814,-6.4851,-6.4906,-6.494,-6.5005,-6.5057,-6.5106,-6.5127,-6.5121,-6.5121,-6.5134,-6.5134,-6.5128,-6.5134,-6.4989,-6.5117,-6.5116,-6.5116,-6.5115,-6.5115,-6.4615,-6.4656,-6.4698,-6.4752,-6.4783,-6.4821,-6.4862,-6.4885,-6.4931,-6.4987,-6.4992,-6.5052,-6.5089,-6.5155,-6.518,-6.5226,-6.5211,-6.523,-6.5235,-6.524,-6.5245,-6.5121,-6.5234,-6.5234,-6.5234,-6.5234,-6.5234,0,-6.4719,-6.4746,-6.4796,-6.4852,-6.4895,-6.4888,-6.4931,-6.4966,-6.502,-6.5057,-6.51,-6.5164,-6.5216,-6.5244,-6.5294,-6.5326,-6.5325,-6.5339,-6.5337,-6.5343,-6.5254,-6.5238,-6.534,-6.534,-6.534,-6.534,-6.534,-6.534,-6.4778,-6.4848,-6.4862,-6.4949,-6.4975,-6.5036,-6.5062,-6.5096,-6.5126,-6.5199,-6.5242,-6.5261,-6.5295,-6.5349,-6.5395,-6.5402,-6.5421,-6.5438,-6.5443,-6.5359,-6.5348,-6.5338,-6.5323,-6.5442,-6.5442,-6.5528,-6.5529,-6.5529]}]]